Time,TemperatureF,DewpointF,PressureIn,WindDirection,WindDirectionDegrees,WindSpeedMPH,WindSpeedGustMPH,Humidity,HourlyPrecipIn,Conditions,Clouds,dailyrainin,SolarRadiationWatts/m^2,SoftwareType,DateUTC
2013-08-06 00:01:00,66.5,64.4,29.90,SE,146,4.6,4.6,93,0.00,RA,,0.00,0.0,WeatherDisplay:10.37,2013-08-06 05:01:00,
2013-08-06 00:06:00,66.4,64.3,29.89,SE,146,3.5,3.5,93,0.00,RA,,0.00,0.0,WeatherDisplay:10.37,2013-08-06 05:06:00,
2013-08-06 00:11:00,66.4,64.3,29.89,SE,146,3.5,3.5,93,0.00,OVC,,0.00,0.0,WeatherDisplay:10.37,2013-08-06 05:11:00,
2013-08-06 00:16:00,66.4,64.6,29.89,SE,146,3.5,3.5,94,0.00,OVC,,0.00,0.0,WeatherDisplay:10.37,2013-08-06 05:16:00,
2013-08-06 00:21:00,66.4,64.6,29.89,SSE,151,4.6,4.6,94,0.00,OVC,,0.00,0.0,WeatherDisplay:10.37,2013-08-06 05:21:00,
2013-08-06 00:26:00,66.4,64.6,29.89,SSE,151,3.5,3.5,94,0.00,OVC,,0.00,0.0,WeatherDisplay:10.37,2013-08-06 05:26:00,
2013-08-06 00:31:00,66.5,64.7,29.89,SSE,151,3.5,3.5,94,0.00,OVC,,0.00,0.0,WeatherDisplay:10.37,2013-08-06 05:31:00,
2013-08-06 00:36:00,66.4,64.6,29.89,SSE,152,3.5,3.5,94,0.00,OVC,,0.00,0.0,WeatherDisplay:10.37,2013-08-06 05:36:00,
2013-08-06 00:41:00,66.4,64.6,29.89,SSE,156,3.5,3.6,94,0.01,RA,,0.01,0.0,WeatherDisplay:10.37,2013-08-06 05:41:00,
2013-08-06 00:46:00,66.4,64.6,29.89,SSE,159,4.6,4.6,94,0.01,RA,,0.01,0.0,WeatherDisplay:10.37,2013-08-06 05:46:00,
2013-08-06 00:51:00,66.3,64.5,29.88,SSE,160,5.0,5.0,94,0.01,RA,,0.01,0.0,WeatherDisplay:10.37,2013-08-06 05:51:00,
2013-08-06 00:56:00,66.3,64.5,29.88,SSE,160,3.5,3.5,94,0.01,OVC,,0.01,0.0,WeatherDisplay:10.37,2013-08-06 05:56:00,
2013-08-06 01:01:00,66.2,64.4,29.88,SSE,167,3.5,3.5,94,0.01,OVC,,0.01,0.0,WeatherDisplay:10.37,2013-08-06 06:01:00,
2013-08-06 01:06:00,66.2,64.7,29.88,SSE,167,3.5,3.5,95,0.01,OVC,,0.01,0.0,WeatherDisplay:10.37,2013-08-06 06:06:00,
2013-08-06 01:11:00,66.2,64.7,29.88,SSE,167,3.5,3.5,95,0.01,OVC,,0.01,0.0,WeatherDisplay:10.37,2013-08-06 06:11:00,
2013-08-06 01:16:00,66.0,64.5,29.88,SSE,167,3.5,3.5,95,0.01,OVC,,0.01,0.0,WeatherDisplay:10.37,2013-08-06 06:16:00,
2013-08-06 01:21:00,65.8,64.0,29.88,SSE,167,3.5,3.5,94,0.01,OVC,,0.01,0.0,WeatherDisplay:10.37,2013-08-06 06:21:00,
2013-08-06 01:26:00,65.7,63.9,29.88,SSE,167,1.1,1.1,94,0.01,OVC,,0.01,0.0,WeatherDisplay:10.37,2013-08-06 06:26:00,
2013-08-06 01:31:00,65.7,64.2,29.88,SSE,167,1.0,1.0,95,0.01,OVC,,0.01,0.0,WeatherDisplay:10.37,2013-08-06 06:31:00,
2013-08-06 01:36:00,65.7,64.2,29.88,SSE,167,0.0,0.1,95,0.01,OVC,,0.01,0.0,WeatherDisplay:10.37,2013-08-06 06:36:00,
2013-08-06 01:41:00,65.8,64.3,29.89,SSE,167,2.3,2.3,95,0.01,OVC,,0.01,0.0,WeatherDisplay:10.37,2013-08-06 06:41:00,
2013-08-06 01:46:00,65.8,64.3,29.89,SSE,167,3.5,3.5,95,0.00,OVC,,0.01,0.0,WeatherDisplay:10.37,2013-08-06 06:46:00,
2013-08-06 01:51:00,65.9,64.4,29.89,SSE,167,3.5,3.5,95,0.00,OVC,,0.01,0.0,WeatherDisplay:10.37,2013-08-06 06:51:00,
2013-08-06 01:56:00,65.9,64.4,29.89,SSE,167,3.5,3.5,95,0.00,OVC,,0.01,0.0,WeatherDisplay:10.37,2013-08-06 06:56:00,
2013-08-06 02:01:00,65.9,64.4,29.89,SSE,167,3.5,3.5,95,0.00,OVC,,0.01,0.0,WeatherDisplay:10.37,2013-08-06 07:01:00,
2013-08-06 02:06:00,65.9,64.4,29.88,SSE,167,3.5,3.5,95,0.00,OVC,,0.01,0.0,WeatherDisplay:10.37,2013-08-06 07:06:00,
2013-08-06 02:11:00,65.9,64.4,29.88,SSE,167,2.3,2.3,95,0.00,OVC,,0.01,0.0,WeatherDisplay:10.37,2013-08-06 07:11:00,
2013-08-06 02:16:00,65.9,64.4,29.89,SSE,167,1.1,1.1,95,0.00,OVC,,0.01,0.0,WeatherDisplay:10.37,2013-08-06 07:16:00,
2013-08-06 02:21:00,65.9,64.4,29.88,SSE,167,2.3,2.3,95,0.00,OVC,,0.01,0.0,WeatherDisplay:10.37,2013-08-06 07:21:00,
2013-08-06 02:26:00,65.9,64.4,29.88,SSE,167,3.5,3.5,95,0.00,OVC,,0.01,0.0,WeatherDisplay:10.37,2013-08-06 07:26:00,
2013-08-06 02:31:00,66.0,64.5,29.88,SSE,167,3.5,3.5,95,0.00,OVC,,0.01,0.0,WeatherDisplay:10.37,2013-08-06 07:31:00,
2013-08-06 02:37:00,65.9,64.4,29.88,SSE,167,0.0,0.0,95,0.00,OVC,,0.01,0.0,WeatherDisplay:10.37,2013-08-06 07:37:00,
2013-08-06 02:42:00,65.9,64.4,29.87,SSE,167,0.0,0.0,95,0.00,OVC,,0.01,0.0,WeatherDisplay:10.37,2013-08-06 07:42:00,
2013-08-06 02:47:00,65.9,64.4,29.87,SSE,167,0.0,0.0,95,0.00,OVC,,0.01,0.0,WeatherDisplay:10.37,2013-08-06 07:47:00,
2013-08-06 02:52:00,65.8,64.3,29.87,SSE,167,0.0,0.0,95,0.00,OVC,,0.01,0.0,WeatherDisplay:10.37,2013-08-06 07:52:00,
2013-08-06 02:57:00,65.6,64.1,29.87,SSE,167,0.0,0.0,95,0.00,OVC,,0.01,0.0,WeatherDisplay:10.37,2013-08-06 07:57:00,
2013-08-06 03:02:00,65.5,64.0,29.86,SSE,167,0.0,0.0,95,0.00,OVC,,0.01,0.0,WeatherDisplay:10.37,2013-08-06 08:02:00,
2013-08-06 03:07:00,65.2,63.7,29.86,SSE,167,2.3,2.3,95,0.00,OVC,,0.01,0.0,WeatherDisplay:10.37,2013-08-06 08:07:00,
2013-08-06 03:12:00,64.9,63.4,29.87,SSE,167,1.1,0.0,95,0.00,OVC,,0.01,0.0,WeatherDisplay:10.37,2013-08-06 08:12:00,
2013-08-06 03:17:00,64.9,63.4,29.86,SSE,167,0.0,0.0,95,0.00,OVC,,0.01,0.0,WeatherDisplay:10.37,2013-08-06 08:17:00,
2013-08-06 03:22:00,64.7,63.2,29.86,SSE,167,0.0,0.0,95,0.00,OVC,,0.01,0.0,WeatherDisplay:10.37,2013-08-06 08:22:00,
2013-08-06 03:27:00,64.5,63.0,29.86,SSE,167,0.0,0.0,95,0.00,OVC,,0.01,0.0,WeatherDisplay:10.37,2013-08-06 08:27:00,
2013-08-06 03:32:00,64.3,62.8,29.86,SSE,167,0.0,0.0,95,0.00,OVC,,0.01,0.0,WeatherDisplay:10.37,2013-08-06 08:32:00,
2013-08-06 03:37:00,64.1,62.6,29.86,SSE,167,0.0,0.0,95,0.00,OVC,,0.01,0.0,WeatherDisplay:10.37,2013-08-06 08:37:00,
2013-08-06 03:42:00,63.9,62.4,29.85,SSE,167,0.0,0.0,95,0.00,OVC,,0.01,0.0,WeatherDisplay:10.37,2013-08-06 08:42:00,
2013-08-06 03:47:00,63.6,62.1,29.85,SSE,167,2.3,2.3,95,0.00,OVC,,0.01,0.0,WeatherDisplay:10.37,2013-08-06 08:47:00,
2013-08-06 03:52:00,63.4,61.9,29.85,SSE,167,1.1,1.1,95,0.00,OVC,,0.01,0.0,WeatherDisplay:10.37,2013-08-06 08:52:00,
2013-08-06 03:57:00,63.3,62.1,29.85,SSE,167,1.1,1.1,96,0.00,OVC,,0.01,0.0,WeatherDisplay:10.37,2013-08-06 08:57:00,
2013-08-06 04:02:00,63.2,62.0,29.84,SSE,167,0.0,0.0,96,0.00,SCT,,0.01,0.0,WeatherDisplay:10.37,2013-08-06 09:02:00,
2013-08-06 04:07:00,63.1,61.9,29.84,SSE,167,0.0,0.0,96,0.00,SCT,,0.01,0.0,WeatherDisplay:10.37,2013-08-06 09:07:00,
2013-08-06 04:12:00,63.1,61.9,29.84,SSE,167,0.0,0.0,96,0.00,SCT,,0.01,0.0,WeatherDisplay:10.37,2013-08-06 09:12:00,
2013-08-06 04:17:00,63.2,62.0,29.84,SSE,167,2.3,2.3,96,0.00,SCT,,0.01,0.0,WeatherDisplay:10.37,2013-08-06 09:17:00,
2013-08-06 04:22:00,63.2,62.0,29.84,SSE,167,3.5,3.5,96,0.00,SCT,,0.01,0.0,WeatherDisplay:10.37,2013-08-06 09:22:00,
2013-08-06 04:27:00,63.3,62.1,29.85,SSE,167,3.5,3.5,96,0.00,SCT,,0.01,0.0,WeatherDisplay:10.37,2013-08-06 09:27:00,
2013-08-06 04:32:00,63.5,62.3,29.85,SSE,167,3.5,3.5,96,0.00,BKN,,0.01,0.0,WeatherDisplay:10.37,2013-08-06 09:32:00,
2013-08-06 04:37:00,63.5,62.3,29.85,SSE,167,1.1,1.1,96,0.00,BKN,,0.01,0.0,WeatherDisplay:10.37,2013-08-06 09:37:00,
2013-08-06 04:42:00,63.3,62.1,29.85,SSE,167,0.0,0.0,96,0.00,BKN,,0.01,0.0,WeatherDisplay:10.37,2013-08-06 09:42:00,
2013-08-06 04:47:00,63.1,61.9,29.85,SSE,167,0.0,0.0,96,0.00,BKN,,0.01,0.0,WeatherDisplay:10.37,2013-08-06 09:47:00,
2013-08-06 04:52:00,62.8,61.6,29.85,SSE,167,0.0,0.1,96,0.00,BKN,,0.01,0.0,WeatherDisplay:10.37,2013-08-06 09:52:00,
2013-08-06 04:57:00,63.0,61.8,29.86,SSE,167,2.3,2.3,96,0.00,BKN,,0.01,0.0,WeatherDisplay:10.37,2013-08-06 09:57:00,
2013-08-06 05:02:00,63.1,62.2,29.85,SSE,167,2.3,2.3,97,0.00,BKN,,0.01,0.0,WeatherDisplay:10.37,2013-08-06 10:02:00,
2013-08-06 05:07:00,62.9,61.7,29.86,SSE,167,3.5,3.5,96,0.00,BKN,,0.01,0.0,WeatherDisplay:10.37,2013-08-06 10:07:00,
2013-08-06 05:12:00,62.7,61.5,29.86,SSE,167,1.1,1.1,96,0.00,BKN,,0.01,0.0,WeatherDisplay:10.37,2013-08-06 10:12:00,
2013-08-06 05:17:00,62.5,61.3,29.85,SSE,167,2.3,2.3,96,0.00,BKN,,0.01,0.0,WeatherDisplay:10.37,2013-08-06 10:17:00,
2013-08-06 05:22:00,62.7,61.8,29.86,SSE,167,3.5,3.5,97,0.00,BKN,,0.01,0.0,WeatherDisplay:10.37,2013-08-06 10:22:00,
2013-08-06 05:27:00,63.1,62.2,29.86,SSE,167,1.1,1.1,97,0.00,BKN,,0.01,0.0,WeatherDisplay:10.37,2013-08-06 10:27:00,
2013-08-06 05:32:00,63.3,62.4,29.86,SSE,167,0.0,0.0,97,0.00,SCT,,0.01,0.0,WeatherDisplay:10.37,2013-08-06 10:32:00,
2013-08-06 05:37:00,63.4,62.5,29.87,SSE,167,0.0,0.0,97,0.00,SCT,,0.01,0.0,WeatherDisplay:10.37,2013-08-06 10:37:00,
2013-08-06 05:42:00,63.4,62.5,29.86,SSE,167,2.3,2.3,97,0.00,SCT,,0.01,0.0,WeatherDisplay:10.37,2013-08-06 10:42:00,
2013-08-06 05:47:00,63.3,62.4,29.87,SSE,167,0.0,0.0,97,0.00,CLR,,0.01,0.0,WeatherDisplay:10.37,2013-08-06 10:47:00,
2013-08-06 05:52:00,63.3,62.4,29.87,SSE,167,1.0,1.0,97,0.00,CLR,,0.01,0.0,WeatherDisplay:10.37,2013-08-06 10:52:00,
2013-08-06 05:57:00,63.5,62.6,29.88,SSE,167,0.0,0.0,97,0.00,CLR,,0.01,0.0,WeatherDisplay:10.37,2013-08-06 10:57:00,
2013-08-06 06:02:00,63.6,62.7,29.88,SSE,167,1.1,0.0,97,0.00,BKN,,0.01,0.0,WeatherDisplay:10.37,2013-08-06 11:02:00,
2013-08-06 06:07:00,63.6,62.7,29.87,SSE,167,1.0,1.1,97,0.00,BKN,,0.01,5.0,WeatherDisplay:10.37,2013-08-06 11:07:00,
2013-08-06 06:12:00,63.8,62.9,29.87,SSE,167,2.3,2.3,97,0.00,BKN,,0.01,7.0,WeatherDisplay:10.37,2013-08-06 11:12:00,
2013-08-06 06:17:00,64.0,63.1,29.88,SSE,167,1.1,0.0,97,0.00,BKN,,0.01,11.0,WeatherDisplay:10.37,2013-08-06 11:17:00,
2013-08-06 06:22:00,64.1,63.2,29.88,SSE,167,1.1,1.1,97,0.00,BKN,,0.01,14.0,WeatherDisplay:10.37,2013-08-06 11:22:00,
2013-08-06 06:27:00,64.3,63.4,29.88,SSE,167,2.3,2.3,97,0.00,BKN,,0.01,18.0,WeatherDisplay:10.37,2013-08-06 11:27:00,
2013-08-06 06:32:00,64.4,63.5,29.88,SSE,167,3.5,3.5,97,0.00,OVC,,0.01,14.0,WeatherDisplay:10.37,2013-08-06 11:32:00,
2013-08-06 06:37:00,64.5,63.6,29.88,SSE,167,3.5,3.5,97,0.00,OVC,,0.01,18.0,WeatherDisplay:10.37,2013-08-06 11:37:00,
2013-08-06 06:42:00,64.5,63.6,29.88,SSE,167,3.5,3.5,97,0.00,OVC,,0.01,30.0,WeatherDisplay:10.37,2013-08-06 11:42:00,
2013-08-06 06:47:00,64.8,63.9,29.89,SSE,167,3.5,3.5,97,0.00,BKN,,0.01,47.0,WeatherDisplay:10.37,2013-08-06 11:47:00,
2013-08-06 06:52:00,65.1,64.2,29.89,SSE,167,4.6,4.6,97,0.00,BKN,,0.01,32.0,WeatherDisplay:10.37,2013-08-06 11:52:00,
2013-08-06 06:57:00,65.2,64.3,29.89,SSE,167,2.3,2.3,97,0.00,BKN,,0.01,40.0,WeatherDisplay:10.37,2013-08-06 11:57:00,
2013-08-06 07:02:00,65.4,64.5,29.89,SSE,167,4.6,4.6,97,0.00,BKN,,0.01,33.0,WeatherDisplay:10.37,2013-08-06 12:02:00,
2013-08-06 07:07:00,65.6,64.7,29.89,SSE,167,4.0,4.0,97,0.00,BKN,,0.01,33.0,WeatherDisplay:10.37,2013-08-06 12:07:00,
2013-08-06 07:12:00,65.7,64.8,29.89,South,169,3.5,3.5,97,0.00,BKN,,0.01,26.0,WeatherDisplay:10.37,2013-08-06 12:12:00,
2013-08-06 07:17:00,65.9,65.0,29.89,South,169,4.6,4.6,97,0.00,OVC,,0.01,51.0,WeatherDisplay:10.37,2013-08-06 12:17:00,
2013-08-06 07:22:00,66.0,65.1,29.89,South,169,3.5,3.5,97,0.00,OVC,,0.01,51.0,WeatherDisplay:10.37,2013-08-06 12:22:00,
2013-08-06 07:27:00,66.1,65.2,29.89,South,169,5.0,5.0,97,0.01,RA,,0.02,30.0,WeatherDisplay:10.37,2013-08-06 12:27:00,
2013-08-06 07:32:00,66.2,65.3,29.90,South,174,5.0,5.0,97,0.01,RA,,0.02,28.0,WeatherDisplay:10.37,2013-08-06 12:32:00,
2013-08-06 07:37:00,66.3,65.4,29.90,South,177,6.0,6.0,97,0.01,OVC,,0.02,39.0,WeatherDisplay:10.37,2013-08-06 12:37:00,
2013-08-06 07:42:00,66.3,65.4,29.90,South,184,6.9,6.9,97,0.01,OVC,,0.02,93.0,WeatherDisplay:10.37,2013-08-06 12:42:00,
2013-08-06 07:47:00,66.5,65.6,29.90,South,188,6.9,6.9,97,0.01,OVC,,0.02,104.0,WeatherDisplay:10.37,2013-08-06 12:47:00,
2013-08-06 07:52:00,66.7,65.8,29.89,South,186,8.0,8.0,97,0.01,OVC,,0.02,111.0,WeatherDisplay:10.37,2013-08-06 12:52:00,
2013-08-06 07:57:00,66.9,65.7,29.89,South,180,8.1,8.1,96,0.01,OVC,,0.02,120.0,WeatherDisplay:10.37,2013-08-06 12:57:00,
2013-08-06 08:02:00,67.1,65.9,29.89,South,188,12.0,12.0,96,0.01,OVC,,0.02,114.0,WeatherDisplay:10.37,2013-08-06 13:02:00,
2013-08-06 08:07:00,67.2,66.0,29.90,South,187,7.0,7.0,96,0.01,OVC,,0.02,118.0,WeatherDisplay:10.37,2013-08-06 13:07:00,
2013-08-06 08:12:00,67.3,66.1,29.89,SSW,198,9.2,9.2,96,0.01,OVC,,0.02,114.0,WeatherDisplay:10.37,2013-08-06 13:12:00,
2013-08-06 08:17:00,67.4,66.2,29.89,South,184,11.5,11.5,96,0.01,OVC,,0.02,141.0,WeatherDisplay:10.37,2013-08-06 13:17:00,
2013-08-06 08:22:00,67.6,66.4,29.90,South,188,8.1,8.1,96,0.01,OVC,,0.02,135.0,WeatherDisplay:10.37,2013-08-06 13:22:00,
2013-08-06 08:28:00,67.7,66.5,29.90,South,190,5.8,5.8,96,0.00,OVC,,0.02,120.0,WeatherDisplay:10.37,2013-08-06 13:28:00,
2013-08-06 08:33:00,67.7,66.5,29.90,South,183,10.4,10.4,96,0.00,OVC,,0.02,160.0,WeatherDisplay:10.37,2013-08-06 13:33:00,
2013-08-06 08:38:00,67.8,66.3,29.89,SSW,212,11.5,11.5,95,0.00,OVC,,0.02,123.0,WeatherDisplay:10.37,2013-08-06 13:38:00,
2013-08-06 08:43:00,67.9,66.4,29.89,SSW,197,9.2,9.2,95,0.00,OVC,,0.02,111.0,WeatherDisplay:10.37,2013-08-06 13:43:00,
2013-08-06 08:48:00,67.9,66.1,29.89,SSW,211,11.5,11.5,94,0.00,OVC,,0.02,105.0,WeatherDisplay:10.37,2013-08-06 13:48:00,
2013-08-06 08:53:00,67.9,66.1,29.89,SW,223,12.7,12.7,94,0.00,OVC,,0.02,100.0,WeatherDisplay:10.37,2013-08-06 13:53:00,
2013-08-06 08:58:00,67.9,66.1,29.89,SSW,208,10.4,10.4,94,0.00,OVC,,0.02,114.0,WeatherDisplay:10.37,2013-08-06 13:58:00,
2013-08-06 09:03:00,68.1,66.3,29.88,SW,229,10.4,10.4,94,0.00,OVC,,0.02,163.0,WeatherDisplay:10.37,2013-08-06 14:03:00,
2013-08-06 09:08:00,68.2,66.4,29.88,WSW,238,9.2,9.2,94,0.00,OVC,,0.02,148.0,WeatherDisplay:10.37,2013-08-06 14:08:00,
2013-08-06 09:13:00,68.4,66.6,29.88,SW,229,8.1,8.1,94,0.00,OVC,,0.02,153.0,WeatherDisplay:10.37,2013-08-06 14:13:00,
2013-08-06 09:18:00,68.5,66.7,29.88,SW,215,10.4,10.4,94,0.00,OVC,,0.02,209.0,WeatherDisplay:10.37,2013-08-06 14:18:00,
2013-08-06 09:23:00,68.7,66.9,29.88,SSW,213,6.0,6.0,94,0.00,OVC,,0.02,234.0,WeatherDisplay:10.37,2013-08-06 14:23:00,
2013-08-06 09:28:00,68.8,66.7,29.88,SW,225,8.1,8.1,93,0.00,OVC,,0.02,251.0,WeatherDisplay:10.37,2013-08-06 14:28:00,
2013-08-06 09:33:00,69.0,66.9,29.87,SW,216,9.2,9.2,93,0.00,OVC,,0.02,230.0,WeatherDisplay:10.37,2013-08-06 14:33:00,
2013-08-06 09:38:00,69.2,67.1,29.87,SSW,208,10.4,10.4,93,0.00,OVC,,0.02,223.0,WeatherDisplay:10.37,2013-08-06 14:38:00,
2013-08-06 09:43:00,69.3,66.9,29.87,SSW,195,10.4,10.4,92,0.00,OVC,,0.02,230.0,WeatherDisplay:10.37,2013-08-06 14:43:00,
2013-08-06 09:48:00,69.3,66.9,29.88,SSW,203,8.1,8.1,92,0.00,OVC,,0.02,236.0,WeatherDisplay:10.37,2013-08-06 14:48:00,
2013-08-06 09:53:00,69.4,67.0,29.88,South,178,6.9,6.9,92,0.00,OVC,,0.02,213.0,WeatherDisplay:10.37,2013-08-06 14:53:00,
2013-08-06 09:58:00,69.6,67.2,29.88,WSW,244,8.1,8.1,92,0.00,OVC,,0.02,216.0,WeatherDisplay:10.37,2013-08-06 14:58:00,
2013-08-06 10:03:00,69.7,67.0,29.88,SW,217,5.8,5.8,91,0.00,OVC,,0.02,223.0,WeatherDisplay:10.37,2013-08-06 15:03:00,
2013-08-06 10:08:00,69.9,67.2,29.89,WSW,248,10.4,10.4,91,0.00,OVC,,0.02,197.0,WeatherDisplay:10.37,2013-08-06 15:08:00,
2013-08-06 10:13:00,69.9,67.2,29.89,SSW,203,6.9,6.9,91,0.00,OVC,,0.02,192.0,WeatherDisplay:10.37,2013-08-06 15:13:00,
2013-08-06 10:18:00,70.1,67.3,29.89,SW,225,5.8,5.8,91,0.00,OVC,,0.02,218.0,WeatherDisplay:10.37,2013-08-06 15:18:00,
2013-08-06 10:23:00,70.3,67.2,29.89,West,279,4.6,4.6,90,0.00,OVC,,0.02,209.0,WeatherDisplay:10.37,2013-08-06 15:23:00,
2013-08-06 10:28:00,70.4,67.3,29.90,SW,229,6.9,6.9,90,0.00,OVC,,0.02,197.0,WeatherDisplay:10.37,2013-08-06 15:28:00,
2013-08-06 10:33:00,70.7,67.6,29.90,WSW,238,7.0,7.0,90,0.00,OVC,,0.02,214.0,WeatherDisplay:10.37,2013-08-06 15:33:00,
2013-08-06 10:38:00,70.8,67.4,29.90,West,266,5.0,5.0,89,0.00,OVC,,0.02,227.0,WeatherDisplay:10.37,2013-08-06 15:38:00,
2013-08-06 10:43:00,71.0,67.6,29.90,SW,236,8.1,8.1,89,0.00,OVC,,0.02,236.0,WeatherDisplay:10.37,2013-08-06 15:43:00,
2013-08-06 10:48:00,71.0,67.3,29.90,SW,233,5.0,5.0,88,0.00,OVC,,0.02,204.0,WeatherDisplay:10.37,2013-08-06 15:48:00,
2013-08-06 10:53:00,71.1,67.7,29.91,NW,310,8.0,8.0,89,0.00,OVC,,0.02,218.0,WeatherDisplay:10.37,2013-08-06 15:53:00,
2013-08-06 10:58:00,71.1,67.4,29.91,SW,234,6.0,6.0,88,0.00,OVC,,0.02,290.0,WeatherDisplay:10.37,2013-08-06 15:58:00,
2013-08-06 11:03:00,71.4,67.7,29.91,WSW,254,5.8,5.8,88,0.00,OVC,,0.02,332.0,WeatherDisplay:10.37,2013-08-06 16:03:00,
2013-08-06 11:08:00,71.6,67.9,29.91,SW,225,3.5,3.5,88,0.00,OVC,,0.02,339.0,WeatherDisplay:10.37,2013-08-06 16:08:00,
2013-08-06 11:13:00,72.0,68.2,29.91,SW,223,1.1,1.1,88,0.00,OVC,,0.02,366.0,WeatherDisplay:10.37,2013-08-06 16:13:00,
2013-08-06 11:18:00,72.2,68.4,29.91,South,186,7.0,7.0,88,0.00,OVC,,0.02,366.0,WeatherDisplay:10.37,2013-08-06 16:18:00,
2013-08-06 11:23:00,72.3,68.5,29.91,SSW,198,5.0,5.0,88,0.00,OVC,,0.02,374.0,WeatherDisplay:10.37,2013-08-06 16:23:00,
2013-08-06 11:28:00,72.7,68.9,29.90,South,172,4.6,4.8,88,0.00,OVC,,0.02,392.0,WeatherDisplay:10.37,2013-08-06 16:28:00,
2013-08-06 11:33:00,72.9,68.8,29.90,SSE,160,5.8,5.8,87,0.00,OVC,,0.02,482.0,WeatherDisplay:10.37,2013-08-06 16:33:00,
2013-08-06 11:38:00,73.4,69.6,29.90,South,170,4.6,4.6,88,0.00,OVC,,0.02,497.0,WeatherDisplay:10.37,2013-08-06 16:38:00,
2013-08-06 11:43:00,73.8,69.0,29.90,SSE,161,9.2,9.2,85,0.00,OVC,,0.02,587.0,WeatherDisplay:10.37,2013-08-06 16:43:00,
2013-08-06 11:48:00,74.4,69.9,29.90,SSE,167,9.2,9.2,86,0.00,OVC,,0.02,483.0,WeatherDisplay:10.37,2013-08-06 16:48:00,
2013-08-06 11:53:00,74.3,69.1,29.90,SW,216,8.1,8.1,84,0.00,OVC,,0.02,461.0,WeatherDisplay:10.37,2013-08-06 16:53:00,
2013-08-06 11:58:00,74.2,69.1,29.90,SSW,209,9.0,9.0,84,0.00,OVC,,0.02,552.0,WeatherDisplay:10.37,2013-08-06 16:58:00,
2013-08-06 12:03:00,74.5,69.7,29.90,SSW,194,8.1,8.1,85,0.00,OVC,,0.02,744.0,WeatherDisplay:10.37,2013-08-06 17:03:00,
2013-08-06 12:08:00,75.2,71.4,29.89,South,170,8.1,8.1,88,0.00,OVC,,0.02,540.0,WeatherDisplay:10.37,2013-08-06 17:08:00,
2013-08-06 12:13:00,75.1,69.9,29.89,South,182,10.0,10.0,84,0.00,OVC,,0.02,550.0,WeatherDisplay:10.37,2013-08-06 17:13:00,
2013-08-06 12:18:00,74.9,69.4,29.89,SSE,152,10.4,10.4,83,0.00,OVC,,0.02,613.0,WeatherDisplay:10.37,2013-08-06 17:18:00,
2013-08-06 12:23:00,75.0,70.2,29.89,SE,126,11.5,11.5,85,0.00,OVC,,0.02,536.0,WeatherDisplay:10.37,2013-08-06 17:23:00,
2013-08-06 12:27:00,75.3,70.1,29.89,SSE,163,8.1,8.1,84,0.00,OVC,,0.02,520.0,WeatherDisplay:10.37,2013-08-06 17:27:00,
2013-08-06 12:32:00,75.4,69.5,29.88,South,185,9.2,9.2,82,0.00,OVC,,0.02,589.0,WeatherDisplay:10.37,2013-08-06 17:32:00,
2013-08-06 12:37:00,75.3,69.8,29.88,SE,139,8.1,8.1,83,0.00,OVC,,0.02,431.0,WeatherDisplay:10.37,2013-08-06 17:37:00,
2013-08-06 12:42:00,75.7,70.2,29.88,SSW,202,9.0,9.0,83,0.00,OVC,,0.02,552.0,WeatherDisplay:10.37,2013-08-06 17:42:00,
2013-08-06 12:47:00,75.9,70.0,29.88,South,179,8.1,8.1,82,0.00,OVC,,0.02,496.0,WeatherDisplay:10.37,2013-08-06 17:47:00,
2013-08-06 12:52:00,76.0,70.1,29.88,South,171,8.1,8.1,82,0.00,OVC,,0.02,373.0,WeatherDisplay:10.37,2013-08-06 17:52:00,
2013-08-06 12:57:00,75.9,69.3,29.88,SSW,193,3.5,3.5,80,0.00,OVC,,0.02,406.0,WeatherDisplay:10.37,2013-08-06 17:57:00,
2013-08-06 13:02:00,76.1,70.2,29.88,SSW,192,5.8,5.8,82,0.00,OVC,,0.02,533.0,WeatherDisplay:10.37,2013-08-06 18:02:00,
2013-08-06 13:07:00,76.3,70.4,29.87,South,188,8.0,8.0,82,0.00,OVC,,0.02,487.0,WeatherDisplay:10.37,2013-08-06 18:07:00,
2013-08-06 13:12:00,76.6,70.3,29.87,SSE,156,6.0,6.0,81,0.00,OVC,,0.02,446.0,WeatherDisplay:10.37,2013-08-06 18:12:00,
2013-08-06 13:17:00,76.7,70.4,29.87,South,169,5.8,5.8,81,0.00,OVC,,0.02,628.0,WeatherDisplay:10.37,2013-08-06 18:17:00,
2013-08-06 13:22:00,76.9,70.6,29.88,SSE,159,5.8,5.8,81,0.00,OVC,,0.02,483.0,WeatherDisplay:10.37,2013-08-06 18:22:00,
2013-08-06 13:27:00,76.9,70.3,29.88,SSE,155,5.8,5.8,80,0.00,OVC,,0.02,538.0,WeatherDisplay:10.37,2013-08-06 18:27:00,
2013-08-06 13:32:00,77.1,70.5,29.87,SSE,163,3.5,3.5,80,0.00,OVC,,0.02,397.0,WeatherDisplay:10.37,2013-08-06 18:32:00,
2013-08-06 13:37:00,77.1,70.5,29.87,ESE,111,4.6,4.6,80,0.00,OVC,,0.02,1055.0,WeatherDisplay:10.37,2013-08-06 18:37:00,
2013-08-06 13:42:00,77.9,71.2,29.87,SE,132,4.6,4.6,80,0.00,OVC,,0.02,446.0,WeatherDisplay:10.37,2013-08-06 18:42:00,
2013-08-06 13:47:00,77.9,70.1,29.87,SW,233,4.6,4.6,77,0.00,OVC,,0.02,415.0,WeatherDisplay:10.37,2013-08-06 18:47:00,
2013-08-06 13:52:00,77.7,70.7,29.87,SSE,161,8.1,8.1,79,0.00,OVC,,0.02,510.0,WeatherDisplay:10.37,2013-08-06 18:52:00,
2013-08-06 13:57:00,78.0,71.3,29.86,South,184,9.2,9.2,80,0.00,OVC,,0.02,563.0,WeatherDisplay:10.37,2013-08-06 18:57:00,
2013-08-06 14:02:00,78.4,71.3,29.86,SSW,211,5.8,5.8,79,0.00,OVC,,0.02,563.0,WeatherDisplay:10.37,2013-08-06 19:02:00,
2013-08-06 14:07:00,78.7,71.3,29.86,SSW,206,6.9,6.9,78,0.00,OVC,,0.02,888.0,WeatherDisplay:10.37,2013-08-06 19:07:00,
2013-08-06 14:12:00,78.8,71.0,29.86,SW,225,6.0,6.0,77,0.00,OVC,,0.02,939.0,WeatherDisplay:10.37,2013-08-06 19:12:00,
2013-08-06 14:17:00,78.8,70.6,29.86,South,186,5.0,5.0,76,0.00,OVC,,0.02,953.0,WeatherDisplay:10.37,2013-08-06 19:17:00,
2013-08-06 14:22:00,78.7,70.5,29.86,SSW,197,3.5,3.5,76,0.00,OVC,,0.02,383.0,WeatherDisplay:10.37,2013-08-06 19:22:00,
2013-08-06 14:27:00,78.7,70.5,29.86,SSW,202,6.9,6.9,76,0.00,OVC,,0.02,301.0,WeatherDisplay:10.37,2013-08-06 19:27:00,
2013-08-06 14:32:00,78.5,71.1,29.86,South,180,6.0,6.0,78,0.00,BKN,,0.02,476.0,WeatherDisplay:10.37,2013-08-06 19:32:00,
2013-08-06 14:37:00,79.1,72.0,29.86,South,188,5.0,5.0,79,0.00,BKN,,0.02,476.0,WeatherDisplay:10.37,2013-08-06 19:37:00,
2013-08-06 14:42:00,79.4,71.2,29.86,SSE,165,6.9,6.9,76,0.00,BKN,,0.02,325.0,WeatherDisplay:10.37,2013-08-06 19:42:00,
2013-08-06 14:47:00,79.3,70.7,29.86,SSE,154,2.3,2.3,75,0.00,BKN,,0.02,315.0,WeatherDisplay:10.37,2013-08-06 19:47:00,
2013-08-06 14:52:00,79.1,71.3,29.85,SSE,161,8.1,8.1,77,0.00,BKN,,0.02,257.0,WeatherDisplay:10.37,2013-08-06 19:52:00,
2013-08-06 14:57:00,78.8,71.0,29.85,South,177,6.0,6.0,77,0.00,BKN,,0.02,320.0,WeatherDisplay:10.37,2013-08-06 19:57:00,
2013-08-06 15:02:00,79.0,71.2,29.85,SSE,152,5.8,5.8,77,0.00,BKN,,0.02,339.0,WeatherDisplay:10.37,2013-08-06 20:02:00,
2013-08-06 15:07:00,79.7,71.5,29.85,SSE,159,10.4,10.4,76,0.00,BKN,,0.02,810.0,WeatherDisplay:10.37,2013-08-06 20:07:00,
2013-08-06 15:12:00,79.6,71.8,29.84,SE,141,7.0,7.0,77,0.00,BKN,,0.02,272.0,WeatherDisplay:10.37,2013-08-06 20:12:00,
2013-08-06 15:17:00,79.4,71.6,29.84,SSE,164,6.9,6.9,77,0.00,BKN,,0.02,814.0,WeatherDisplay:10.37,2013-08-06 20:17:00,
2013-08-06 15:22:00,79.9,72.0,29.84,SSE,155,7.0,7.0,77,0.00,BKN,,0.02,810.0,WeatherDisplay:10.37,2013-08-06 20:22:00,
2013-08-06 15:27:00,80.1,71.8,29.83,SE,140,10.4,10.4,76,0.00,BKN,,0.02,773.0,WeatherDisplay:10.37,2013-08-06 20:27:00,
2013-08-06 15:32:00,79.8,71.6,29.84,SSE,161,8.1,8.1,76,0.00,BKN,,0.02,204.0,WeatherDisplay:10.37,2013-08-06 20:32:00,
2013-08-06 15:37:00,79.2,71.7,29.83,South,178,8.0,8.0,78,0.00,BKN,,0.02,288.0,WeatherDisplay:10.37,2013-08-06 20:37:00,
2013-08-06 15:42:00,79.9,72.4,29.83,ESE,115,8.1,8.1,78,0.00,BKN,,0.02,796.0,WeatherDisplay:10.37,2013-08-06 20:42:00,
2013-08-06 15:47:00,80.5,72.6,29.83,SSE,162,8.1,8.1,77,0.00,BKN,,0.02,682.0,WeatherDisplay:10.37,2013-08-06 20:47:00,
2013-08-06 15:52:00,80.1,71.8,29.84,SE,143,9.2,9.2,76,0.00,BKN,,0.02,299.0,WeatherDisplay:10.37,2013-08-06 20:52:00,
2013-08-06 15:57:00,80.2,71.9,29.84,SE,144,6.9,6.9,76,0.00,BKN,,0.02,585.0,WeatherDisplay:10.37,2013-08-06 20:57:00,
2013-08-06 16:02:00,80.1,71.8,29.84,SSE,148,8.1,8.1,76,0.00,BKN,,0.02,682.0,WeatherDisplay:10.37,2013-08-06 21:02:00,
2013-08-06 16:07:00,80.3,72.0,29.84,SE,131,9.2,9.2,76,0.00,BKN,,0.02,633.0,WeatherDisplay:10.37,2013-08-06 21:07:00,
2013-08-06 16:12:00,80.6,72.7,29.84,SE,142,8.1,8.1,77,0.00,BKN,,0.02,612.0,WeatherDisplay:10.37,2013-08-06 21:12:00,
2013-08-06 16:17:00,80.9,72.2,29.84,SE,140,11.5,11.5,75,0.00,SCT,,0.02,605.0,WeatherDisplay:10.37,2013-08-06 21:17:00,
2013-08-06 16:22:00,80.9,71.4,29.84,South,171,9.2,9.2,73,0.00,SCT,,0.02,628.0,WeatherDisplay:10.37,2013-08-06 21:22:00,
2013-08-06 16:27:00,80.9,72.6,29.84,SE,142,9.2,9.2,76,0.00,SCT,,0.02,606.0,WeatherDisplay:10.37,2013-08-06 21:27:00,
2013-08-06 16:32:00,80.5,71.4,29.84,SSE,164,8.1,8.1,74,0.00,BKN,,0.02,271.0,WeatherDisplay:10.37,2013-08-06 21:32:00,
2013-08-06 16:37:00,80.0,71.4,29.84,SSE,155,6.9,6.9,75,0.00,BKN,,0.02,211.0,WeatherDisplay:10.37,2013-08-06 21:37:00,
2013-08-06 16:42:00,79.6,71.8,29.84,SSE,161,8.1,8.1,77,0.00,BKN,,0.02,192.0,WeatherDisplay:10.37,2013-08-06 21:42:00,
2013-08-06 16:47:00,79.3,71.5,29.84,SSE,150,5.8,5.8,77,0.00,BKN,,0.02,163.0,WeatherDisplay:10.37,2013-08-06 21:47:00,
2013-08-06 16:52:00,79.1,71.6,29.84,SSE,153,6.0,6.0,78,0.00,BKN,,0.02,388.0,WeatherDisplay:10.37,2013-08-06 21:52:00,
2013-08-06 16:57:00,79.2,71.4,29.84,SSE,163,6.9,6.9,77,0.00,BKN,,0.02,207.0,WeatherDisplay:10.37,2013-08-06 21:57:00,
2013-08-06 17:02:00,79.2,71.4,29.84,SSE,159,8.1,8.1,77,0.00,BKN,,0.02,253.0,WeatherDisplay:10.37,2013-08-06 22:02:00,
2013-08-06 17:07:00,79.8,72.3,29.84,SE,140,8.1,8.1,78,0.00,BKN,,0.02,513.0,WeatherDisplay:10.37,2013-08-06 22:07:00,
2013-08-06 17:12:00,80.0,71.4,29.84,SE,146,8.1,8.1,75,0.00,BKN,,0.02,297.0,WeatherDisplay:10.37,2013-08-06 22:12:00,
2013-08-06 17:17:00,79.8,71.6,29.84,SE,138,8.0,8.0,76,0.00,BKN,,0.02,221.0,WeatherDisplay:10.37,2013-08-06 22:17:00,
2013-08-06 17:22:00,79.3,71.8,29.84,SE,136,10.4,10.4,78,0.00,BKN,,0.02,214.0,WeatherDisplay:10.37,2013-08-06 22:22:00,
2013-08-06 17:27:00,78.9,71.1,29.84,SSE,159,9.2,9.2,77,0.00,BKN,,0.02,185.0,WeatherDisplay:10.37,2013-08-06 22:27:00,
2013-08-06 17:32:00,78.6,71.2,29.84,SSE,164,8.1,8.1,78,0.00,SCT,,0.02,153.0,WeatherDisplay:10.37,2013-08-06 22:32:00,
2013-08-06 17:37:00,78.5,71.4,29.84,South,169,6.9,6.9,79,0.00,SCT,,0.02,132.0,WeatherDisplay:10.37,2013-08-06 22:37:00,
2013-08-06 17:42:00,78.2,70.8,29.84,SSE,153,8.0,8.0,78,0.00,SCT,,0.02,116.0,WeatherDisplay:10.37,2013-08-06 22:42:00,
2013-08-06 17:47:00,78.0,71.0,29.84,SSE,167,6.9,6.9,79,0.00,CLR,,0.02,100.0,WeatherDisplay:10.37,2013-08-06 22:47:00,
2013-08-06 17:52:00,77.9,71.2,29.84,SSE,165,8.1,8.1,80,0.00,CLR,,0.02,86.0,WeatherDisplay:10.37,2013-08-06 22:52:00,
2013-08-06 17:57:00,77.7,71.0,29.84,SSE,156,6.9,6.9,80,0.00,CLR,,0.02,77.0,WeatherDisplay:10.37,2013-08-06 22:57:00,
2013-08-06 18:02:00,77.5,71.2,29.84,SSE,148,6.9,6.9,81,0.00,CLR,,0.02,72.0,WeatherDisplay:10.37,2013-08-06 23:02:00,
2013-08-06 18:07:00,77.4,71.1,29.84,SE,137,4.6,4.6,81,0.00,CLR,,0.02,63.0,WeatherDisplay:10.37,2013-08-06 23:07:00,
2013-08-06 18:12:00,77.1,70.8,29.84,SSE,152,6.0,6.0,81,0.00,CLR,,0.02,54.0,WeatherDisplay:10.37,2013-08-06 23:12:00,
2013-08-06 18:17:00,76.9,71.0,29.84,SE,138,5.8,5.8,82,0.00,CLR,,0.02,47.0,WeatherDisplay:10.37,2013-08-06 23:17:00,
2013-08-06 18:22:00,76.6,70.7,29.84,SE,140,5.8,5.8,82,0.00,CLR,,0.02,42.0,WeatherDisplay:10.37,2013-08-06 23:22:00,
2013-08-06 18:27:00,76.4,70.9,29.84,SE,144,5.8,5.8,83,0.00,CLR,,0.02,35.0,WeatherDisplay:10.37,2013-08-06 23:27:00,
2013-08-06 18:32:00,76.2,70.7,29.84,SSE,149,6.9,6.9,83,0.00,CLR,,0.02,26.0,WeatherDisplay:10.37,2013-08-06 23:32:00,
2013-08-06 18:37:00,76.0,70.8,29.84,SSE,153,4.6,4.6,84,0.00,CLR,,0.02,21.0,WeatherDisplay:10.37,2013-08-06 23:37:00,
2013-08-06 18:42:00,75.8,70.6,29.84,SE,142,4.6,4.6,84,0.00,CLR,,0.02,19.0,WeatherDisplay:10.37,2013-08-06 23:42:00,
2013-08-06 18:47:00,75.6,70.8,29.84,SE,140,3.5,3.5,85,0.00,CLR,,0.02,16.0,WeatherDisplay:10.37,2013-08-06 23:47:00,
2013-08-06 18:52:00,75.4,70.6,29.84,SE,144,4.0,4.0,85,0.00,CLR,,0.02,14.0,WeatherDisplay:10.37,2013-08-06 23:52:00,
2013-08-06 18:57:00,75.3,70.8,29.84,SSE,150,3.5,3.5,86,0.00,CLR,,0.02,12.0,WeatherDisplay:10.37,2013-08-06 23:57:00,
2013-08-06 19:02:00,75.1,70.6,29.84,SSE,158,3.5,3.5,86,0.00,CLR,,0.02,12.0,WeatherDisplay:10.37,2013-08-07 00:02:00,
2013-08-06 19:07:00,75.1,70.6,29.85,SSE,158,3.5,3.5,86,0.00,CLR,,0.02,12.0,WeatherDisplay:10.37,2013-08-07 00:07:00,
2013-08-06 19:12:00,74.9,70.8,29.84,SSE,160,4.6,4.6,87,0.00,CLR,,0.02,12.0,WeatherDisplay:10.37,2013-08-07 00:12:00,
2013-08-06 19:17:00,74.8,70.7,29.84,South,169,5.0,5.0,87,0.00,CLR,,0.02,11.0,WeatherDisplay:10.37,2013-08-07 00:17:00,
2013-08-06 19:22:00,74.7,70.9,29.84,SSE,165,4.0,4.0,88,0.00,CLR,,0.02,9.0,WeatherDisplay:10.37,2013-08-07 00:22:00,
2013-08-06 19:27:00,74.4,70.6,29.84,SSE,165,4.0,4.0,88,0.00,CLR,,0.02,7.0,WeatherDisplay:10.37,2013-08-07 00:27:00,
2013-08-06 19:32:00,74.3,70.5,29.84,SSE,162,4.6,4.6,88,0.00,CLR,,0.02,5.0,WeatherDisplay:10.37,2013-08-07 00:32:00,
2013-08-06 19:37:00,74.2,70.4,29.84,SSE,165,4.6,4.6,88,0.00,CLR,,0.02,5.0,WeatherDisplay:10.37,2013-08-07 00:37:00,
2013-08-06 19:42:00,74.1,70.3,29.84,SSE,162,4.6,4.6,88,0.00,CLR,,0.02,0.0,WeatherDisplay:10.37,2013-08-07 00:42:00,
2013-08-06 19:47:00,74.0,70.6,29.84,SSE,165,3.5,3.5,89,0.00,CLR,,0.02,0.0,WeatherDisplay:10.37,2013-08-07 00:47:00,
2013-08-06 19:52:00,74.0,70.6,29.84,South,170,4.6,4.6,89,0.00,CLR,,0.02,0.0,WeatherDisplay:10.37,2013-08-07 00:52:00,
2013-08-06 19:57:00,74.0,70.6,29.84,SSE,157,4.6,4.6,89,0.00,CLR,,0.02,0.0,WeatherDisplay:10.37,2013-08-07 00:57:00,
2013-08-06 20:02:00,73.9,70.5,29.84,SSE,167,5.8,5.8,89,0.00,CLR,,0.02,0.0,WeatherDisplay:10.37,2013-08-07 01:02:00,
2013-08-06 20:07:00,73.9,70.5,29.84,South,171,5.8,5.8,89,0.00,CLR,,0.02,0.0,WeatherDisplay:10.37,2013-08-07 01:07:00,
2013-08-06 20:12:00,73.8,70.4,29.84,South,173,6.9,6.9,89,0.00,CLR,,0.02,0.0,WeatherDisplay:10.37,2013-08-07 01:12:00,
2013-08-06 20:13:00,73.8,70.4,29.84,South,173,4.6,4.6,89,0.00,CLR,,0.02,0.0,WeatherDisplay:10.37,2013-08-07 01:13:00,
2013-08-06 20:18:00,73.8,70.4,29.83,South,171,5.8,5.8,89,0.00,CLR,,0.02,0.0,WeatherDisplay:10.37,2013-08-07 01:18:00,
2013-08-06 20:23:00,73.7,70.3,29.83,South,169,5.8,5.8,89,0.00,CLR,,0.02,0.0,WeatherDisplay:10.37,2013-08-07 01:23:00,
2013-08-06 20:28:00,73.7,70.3,29.83,SSE,165,6.0,6.0,89,0.00,CLR,,0.02,0.0,WeatherDisplay:10.37,2013-08-07 01:28:00,
2013-08-06 20:33:00,73.6,70.2,29.84,South,171,4.0,4.0,89,0.00,CLR,,0.02,0.0,WeatherDisplay:10.37,2013-08-07 01:33:00,
2013-08-06 20:38:00,73.5,70.1,29.84,South,169,3.5,3.5,89,0.00,CLR,,0.02,0.0,WeatherDisplay:10.37,2013-08-07 01:38:00,
2013-08-06 20:43:00,73.3,69.9,29.84,SSE,159,3.5,3.5,89,0.00,CLR,,0.02,0.0,WeatherDisplay:10.37,2013-08-07 01:43:00,
2013-08-06 20:48:00,73.1,69.7,29.84,SSE,159,3.5,3.5,89,0.00,CLR,,0.02,0.0,WeatherDisplay:10.37,2013-08-07 01:48:00,
2013-08-06 20:53:00,72.9,69.8,29.85,SSE,159,2.3,2.3,90,0.00,CLR,,0.02,0.0,WeatherDisplay:10.37,2013-08-07 01:53:00,
2013-08-06 20:58:00,72.7,69.6,29.85,SSE,159,0.0,0.0,90,0.00,CLR,,0.02,0.0,WeatherDisplay:10.37,2013-08-07 01:58:00,
2013-08-06 21:03:00,72.5,69.4,29.86,SSE,159,0.0,0.0,90,0.00,CLR,,0.02,0.0,WeatherDisplay:10.37,2013-08-07 02:03:00,
2013-08-06 21:08:00,72.3,69.2,29.86,SSE,159,0.0,0.0,90,0.00,CLR,,0.02,0.0,WeatherDisplay:10.37,2013-08-07 02:08:00,
2013-08-06 21:13:00,72.0,68.9,29.86,SSE,159,2.3,2.3,90,0.00,CLR,,0.02,0.0,WeatherDisplay:10.37,2013-08-07 02:13:00,
2013-08-06 21:18:00,71.6,68.5,29.86,SSE,159,3.5,3.5,90,0.00,CLR,,0.02,0.0,WeatherDisplay:10.37,2013-08-07 02:18:00,
2013-08-06 21:23:00,71.4,68.6,29.86,SSE,159,2.3,2.3,91,0.00,CLR,,0.02,0.0,WeatherDisplay:10.37,2013-08-07 02:23:00,
2013-08-06 21:28:00,71.1,68.3,29.86,SSE,159,2.3,2.3,91,0.00,CLR,,0.02,0.0,WeatherDisplay:10.37,2013-08-07 02:28:00,
2013-08-06 21:33:00,70.8,68.4,29.86,SSE,159,1.0,0.0,92,0.00,CLR,,0.02,0.0,WeatherDisplay:10.37,2013-08-07 02:33:00,
2013-08-06 21:38:00,70.6,68.2,29.85,SSE,159,1.1,0.0,92,0.00,CLR,,0.02,0.0,WeatherDisplay:10.37,2013-08-07 02:38:00,
2013-08-06 21:43:00,70.5,68.1,29.85,SSE,159,2.3,2.3,92,0.00,CLR,,0.02,0.0,WeatherDisplay:10.37,2013-08-07 02:43:00,
2013-08-06 21:48:00,70.3,68.2,29.86,SSE,159,1.1,0.0,93,0.00,CLR,,0.02,0.0,WeatherDisplay:10.37,2013-08-07 02:48:00,
2013-08-06 21:53:00,70.1,68.0,29.86,SSE,159,1.1,1.1,93,0.00,CLR,,0.02,0.0,WeatherDisplay:10.37,2013-08-07 02:53:00,
2013-08-06 21:58:00,70.0,67.9,29.86,SSE,159,0.0,0.0,93,0.00,CLR,,0.02,0.0,WeatherDisplay:10.37,2013-08-07 02:58:00,
2013-08-06 22:03:00,69.8,67.7,29.86,SSE,159,2.3,2.3,93,0.00,CLR,,0.02,0.0,WeatherDisplay:10.37,2013-08-07 03:03:00,
2013-08-06 22:08:00,69.7,67.6,29.86,SSE,159,0.0,0.0,93,0.00,CLR,,0.02,0.0,WeatherDisplay:10.37,2013-08-07 03:08:00,
2013-08-06 22:13:00,69.7,67.9,29.86,SSE,159,1.1,0.0,94,0.00,CLR,,0.02,0.0,WeatherDisplay:10.37,2013-08-07 03:13:00,
2013-08-06 22:18:00,69.6,67.8,29.86,SSE,159,2.3,2.3,94,0.00,CLR,,0.02,0.0,WeatherDisplay:10.37,2013-08-07 03:18:00,
2013-08-06 22:23:00,69.6,67.8,29.86,SSE,159,0.0,0.0,94,0.00,CLR,,0.02,0.0,WeatherDisplay:10.37,2013-08-07 03:23:00,
2013-08-06 22:28:00,69.7,67.9,29.86,SSE,159,0.0,0.0,94,0.00,CLR,,0.02,0.0,WeatherDisplay:10.37,2013-08-07 03:28:00,
2013-08-06 22:33:00,69.7,68.2,29.86,SSE,159,0.0,0.0,95,0.00,CLR,,0.02,0.0,WeatherDisplay:10.37,2013-08-07 03:33:00,
2013-08-06 22:38:00,69.9,68.4,29.86,SSE,159,0.0,0.2,95,0.00,CLR,,0.02,0.0,WeatherDisplay:10.37,2013-08-07 03:38:00,
2013-08-06 22:43:00,69.9,68.4,29.86,SSE,159,1.1,1.1,95,0.00,CLR,,0.02,0.0,WeatherDisplay:10.37,2013-08-07 03:43:00,
2013-08-06 22:48:00,70.2,68.7,29.86,SSE,159,3.5,3.5,95,0.00,CLR,,0.02,0.0,WeatherDisplay:10.37,2013-08-07 03:48:00,
2013-08-06 22:53:00,70.3,68.8,29.86,SSE,159,3.5,3.5,95,0.00,CLR,,0.02,0.0,WeatherDisplay:10.37,2013-08-07 03:53:00,
2013-08-06 22:58:00,70.3,68.8,29.86,SSE,159,2.3,2.3,95,0.00,CLR,,0.02,0.0,WeatherDisplay:10.37,2013-08-07 03:58:00,
2013-08-06 23:01:00,70.3,68.8,29.86,SSE,159,2.3,2.3,95,0.00,CLR,,0.02,0.0,WeatherDisplay:10.37,2013-08-07 04:01:00,
2013-08-06 23:06:00,70.3,68.8,29.86,SSE,159,2.3,2.3,95,0.00,CLR,,0.02,0.0,WeatherDisplay:10.37,2013-08-07 04:06:00,
2013-08-06 23:11:00,70.3,68.8,29.85,SSE,159,3.5,3.5,95,0.00,CLR,,0.02,0.0,WeatherDisplay:10.37,2013-08-07 04:11:00,
2013-08-06 23:16:00,70.3,68.8,29.85,SSE,159,3.5,3.5,95,0.00,CLR,,0.02,0.0,WeatherDisplay:10.37,2013-08-07 04:16:00,
2013-08-06 23:21:00,70.4,69.2,29.85,SSE,165,4.0,4.0,96,0.00,CLR,,0.02,0.0,WeatherDisplay:10.37,2013-08-07 04:21:00,
2013-08-06 23:26:00,70.8,69.6,29.85,South,178,6.0,6.0,96,0.00,CLR,,0.02,0.0,WeatherDisplay:10.37,2013-08-07 04:26:00,
2013-08-06 23:31:00,71.2,70.0,29.85,South,182,6.9,6.9,96,0.00,CLR,,0.02,0.0,WeatherDisplay:10.37,2013-08-07 04:31:00,
2013-08-06 23:36:00,71.7,70.5,29.84,South,190,8.1,8.1,96,0.00,CLR,,0.02,0.0,WeatherDisplay:10.37,2013-08-07 04:36:00,
2013-08-06 23:41:00,71.9,70.4,29.84,South,186,4.0,4.0,95,0.00,CLR,,0.02,0.0,WeatherDisplay:10.37,2013-08-07 04:41:00,
2013-08-06 23:46:00,72.1,70.6,29.84,South,191,5.8,5.8,95,0.00,CLR,,0.02,0.0,WeatherDisplay:10.37,2013-08-07 04:46:00,
2013-08-06 23:51:00,72.2,70.4,29.84,South,186,6.0,6.0,94,0.00,CLR,,0.02,0.0,WeatherDisplay:10.37,2013-08-07 04:51:00,
2013-08-06 23:56:00,72.3,70.5,29.84,SSW,193,3.5,3.5,94,0.00,CLR,,0.02,0.0,WeatherDisplay:10.37,2013-08-07 04:56:00,